"Period start","avg(HW err(1)/warn(2) (#))","avg(Visibility (m))","avg(Weather code (#))","avg(Precip intensity (mm/h))","min(HW err(1)/warn(2) (#))","max(HW err(1)/warn(2) (#))","std(HW err(1)/warn(2) (#))","med(HW err(1)/warn(2) (#))","min(Visibility (m))","max(Visibility (m))","std(Visibility (m))","med(Visibility (m))","min(Weather code (#))","max(Weather code (#))","std(Weather code (#))","med(Weather code (#))","min(Precip intensity (mm/h))","max(Precip intensity (mm/h))","std(Precip intensity (mm/h))","med(Precip intensity (mm/h))"
2014-07-30 00:00:00,0,11766,0,0.00,0,0,0,0,9938,13775,1313,11912,0,0,0,0,0.00,0.00,0.00,0.00
2014-07-30 00:10:00,0,11545,0,0.00,0,0,0,0,10286,14513,1480,10682,0,0,0,0,0.00,0.00,0.00,0.00
2014-07-30 00:20:00,0,11486,0,0.00,0,0,0,0,9995,16338,1823,10918,0,0,0,0,0.00,0.00,0.00,0.00
2014-07-30 00:30:00,0,11641,0,0.00,0,0,0,0,9868,15188,1434,11150,0,0,0,0,0.00,0.00,0.00,0.00
2014-07-30 00:40:00,0,11037,0,0.00,0,0,0,0,8949,12963,1307,11412,0,0,0,0,0.00,0.00,0.00,0.00
2014-07-30 00:50:00,0,10719,0,0.00,0,0,0,0,8475,14603,1570,10398,0,0,0,0,0.00,0.00,0.00,0.00
2014-07-30 01:00:00,0,10942,0,0.00,0,0,0,0,9733,12500,799,10782,0,0,0,0,0.00,0.00,0.00,0.00
2014-07-30 01:10:00,0,10787,0,0.00,0,0,0,0,9873,12175,696,10778,0,0,0,0,0.00,0.00,0.00,0.00
2014-07-30 01:20:00,0,10956,0,0.00,0,0,0,0,9358,13517,1284,11012,0,0,0,0,0.00,0.00,0.00,0.00
2014-07-30 01:30:00,0,10721,0,0.00,0,0,0,0,9027,11891,877,11026,0,0,0,0,0.00,0.00,0.00,0.00
2014-07-30 01:40:00,0,13038,0,0.00,0,0,0,0,10105,17785,2506,12258,0,0,0,0,0.00,0.00,0.00,0.00
2014-07-30 01:50:00,0,11194,0,0.00,0,0,0,0,8663,13185,1265,11330,0,0,0,0,0.00,0.00,0.00,0.00
2014-07-30 02:00:00,0,10370,0,0.00,0,0,0,0,8528,11428,849,10444,0,0,0,0,0.00,0.00,0.00,0.00
2014-07-30 02:10:00,0,10280,0,0.00,0,0,0,0,8384,12860,1270,10610,0,0,0,0,0.00,0.00,0.00,0.00
2014-07-30 02:20:00,0,10504,0,0.00,0,0,0,0,7966,13487,1769,10454,0,0,0,0,0.00,0.00,0.00,0.00
2014-07-30 02:30:00,0,8563,3,0.00,0,0,0,0,7522,9685,630,8413,0,10,5,0,0.00,0.00,0.00,0.00
2014-07-30 02:40:00,0,7608,10,0.00,0,0,0,0,7103,8118,293,7584,10,10,0,10,0.00,0.00,0.00,0.00
2014-07-30 02:50:00,0,7201,10,0.00,0,0,0,0,6715,7967,364,7210,10,10,0,10,0.00,0.00,0.00,0.00
2014-07-30 03:00:00,0,8250,7,0.00,0,0,0,0,7487,9966,730,7980,4,10,3,7,0.00,0.00,0.00,0.00
2014-07-30 03:10:00,0,8589,4,0.00,0,2,1,0,7468,9125,489,8692,4,4,0,4,0.00,0.00,0.00,0.00
2014-07-30 03:20:00,0,8779,4,0.00,0,0,0,0,8310,9306,350,8636,4,4,0,4,0.00,0.00,0.00,0.00
2014-07-30 03:30:00,0,9191,4,0.00,0,2,1,0,7921,10238,734,9391,4,4,0,4,0.00,0.00,0.00,0.00
2014-07-30 03:40:00,0,9058,4,0.00,0,0,0,0,8209,10145,562,9032,4,4,0,4,0.00,0.00,0.00,0.00
2014-07-30 03:50:00,0,9170,4,0.00,0,0,0,0,8171,10436,669,9355,4,4,0,4,0.00,0.00,0.00,0.00
2014-07-30 04:00:00,0,8973,4,0.00,0,2,1,0,8111,9724,590,8982,4,4,0,4,0.00,0.00,0.00,0.00
2014-07-30 04:10:00,0,9440,4,0.00,0,0,0,0,8776,10234,444,9378,4,4,0,4,0.00,0.00,0.00,0.00
2014-07-30 04:20:00,0,9292,4,0.00,0,0,0,0,8792,10149,412,9141,4,4,0,4,0.00,0.00,0.00,0.00
2014-07-30 04:30:00,0,9738,4,0.00,0,0,0,0,8773,10871,602,9678,4,4,0,4,0.00,0.00,0.00,0.00
2014-07-30 04:40:00,0,9513,4,0.00,0,0,0,0,8459,11617,887,9376,4,4,0,4,0.00,0.00,0.00,0.00
2014-07-30 04:50:00,0,9711,4,0.00,0,2,1,0,8449,10392,566,9784,4,4,0,4,0.00,0.00,0.00,0.00
2014-07-30 05:00:00,0,8937,4,0.00,0,0,0,0,8264,9619,462,8898,4,4,0,4,0.00,0.00,0.00,0.00
2014-07-30 05:10:00,0,8884,4,0.00,0,0,0,0,7741,9611,498,8946,4,4,0,4,0.00,0.00,0.00,0.00
2014-07-30 05:20:00,0,9202,4,0.00,0,0,0,0,8606,9880,375,9204,4,4,0,4,0.00,0.00,0.00,0.00
2014-07-30 05:30:00,0,9132,4,0.00,0,2,1,0,8311,10785,652,9046,4,4,0,4,0.00,0.00,0.00,0.00
2014-07-30 05:40:00,0,8644,4,0.00,0,0,0,0,7888,9410,481,8654,4,4,0,4,0.00,0.00,0.00,0.00
2014-07-30 05:50:00,0,8483,4,0.00,0,0,0,0,7767,9136,393,8613,4,4,0,4,0.00,0.00,0.00,0.00
2014-07-30 06:00:00,0,8618,4,0.00,0,0,0,0,8043,9475,422,8536,4,4,0,4,0.00,0.00,0.00,0.00
2014-07-30 06:10:00,0,8416,4,0.00,0,0,0,0,7712,8766,377,8628,4,4,0,4,0.00,0.00,0.00,0.00
2014-07-30 06:20:00,0,8431,4,0.00,0,0,0,0,7494,9553,599,8399,4,4,0,4,0.00,0.00,0.00,0.00
2014-07-30 06:30:00,0,8434,4,0.00,0,0,0,0,7738,8977,355,8410,4,4,0,4,0.00,0.00,0.00,0.00
2014-07-30 06:40:00,0,7847,4,0.00,0,0,0,0,7569,8090,163,7914,4,4,0,4,0.00,0.00,0.00,0.00
2014-07-30 06:50:00,0,7449,4,0.00,0,0,0,0,6970,7932,305,7466,4,4,0,4,0.00,0.00,0.00,0.00
2014-07-30 07:00:00,0,7471,4,0.00,0,0,0,0,7108,7866,219,7486,4,4,0,4,0.00,0.00,0.00,0.00
2014-07-30 07:10:00,0,7666,4,0.00,0,2,1,0,7357,8374,307,7572,4,4,0,4,0.00,0.00,0.00,0.00
2014-07-30 07:20:00,0,7555,4,0.00,0,0,0,0,7173,7941,281,7508,4,4,0,4,0.00,0.00,0.00,0.00
2014-07-30 07:30:00,0,7695,4,0.00,0,0,0,0,7271,8142,231,7715,4,4,0,4,0.00,0.00,0.00,0.00
2014-07-30 07:40:00,0,7782,4,0.00,0,0,0,0,7203,8637,440,7839,4,4,0,4,0.00,0.00,0.00,0.00
2014-07-30 07:50:00,0,7468,4,0.00,0,0,0,0,6899,8428,505,7432,4,4,0,4,0.00,0.00,0.00,0.00
2014-07-30 08:00:00,0,7044,4,0.00,0,0,0,0,6827,7570,260,6940,4,4,0,4,0.00,0.00,0.00,0.00
2014-07-30 08:10:00,0,7362,4,0.00,0,2,1,0,6861,7814,270,7374,4,4,0,4,0.00,0.00,0.00,0.00
2014-07-30 08:20:00,0,9343,4,0.00,0,0,0,0,8007,9990,595,9332,4,4,0,4,0.00,0.00,0.00,0.00
2014-07-30 08:30:00,0,9416,4,0.00,0,2,1,0,7253,10404,833,9599,4,4,0,4,0.00,0.00,0.00,0.00
2014-07-30 08:40:00,0,9370,4,0.00,0,0,0,0,8640,10231,505,9246,4,4,0,4,0.00,0.00,0.00,0.00
2014-07-30 08:50:00,0,9481,4,0.00,0,0,0,0,8559,10492,563,9354,4,4,0,4,0.00,0.00,0.00,0.00
2014-07-30 09:00:00,0,9384,4,0.00,0,0,0,0,8944,9888,277,9476,4,4,0,4,0.00,0.00,0.00,0.00
2014-07-30 09:10:00,0,8914,4,0.00,0,0,0,0,4562,10292,1590,9403,4,4,0,4,0.00,0.00,0.00,0.00
2014-07-30 09:20:00,0,9307,4,0.00,0,0,0,0,8317,10074,509,9392,4,4,0,4,0.00,0.00,0.00,0.00
2014-07-30 09:30:00,0,9159,4,0.00,0,0,0,0,8618,9701,303,9228,4,4,0,4,0.00,0.00,0.00,0.00
2014-07-30 09:40:00,0,9047,4,0.00,0,0,0,0,8427,9760,433,8965,4,4,0,4,0.00,0.00,0.00,0.00
2014-07-30 09:50:00,0,9183,9,0.00,0,0,0,0,8415,9606,367,9250,4,10,2,10,0.00,0.00,0.00,0.00
2014-07-30 10:00:00,0,9349,10,0.00,0,0,0,0,8792,9960,328,9376,10,10,0,10,0.00,0.00,0.00,0.00
2014-07-30 10:10:00,0,9012,10,0.00,0,0,0,0,7870,9540,444,9108,10,10,0,10,0.00,0.00,0.00,0.00
2014-07-30 10:20:00,0,9203,10,0.00,0,0,0,0,8157,9899,421,9233,10,10,0,10,0.00,0.00,0.00,0.00
2014-07-30 10:30:00,0,9527,10,0.00,0,0,0,0,8976,10391,440,9406,10,10,0,10,0.00,0.00,0.00,0.00
2014-07-30 10:40:00,0,9185,10,0.00,0,0,0,0,6996,9926,806,9360,10,10,0,10,0.00,0.00,0.00,0.00
2014-07-30 10:50:00,0,9017,10,0.00,0,0,0,0,8325,9482,332,9096,10,10,0,10,0.00,0.00,0.00,0.00
2014-07-30 11:00:00,0,9498,10,0.00,0,0,0,0,8661,10505,456,9482,10,10,0,10,0.00,0.00,0.00,0.00
2014-07-30 11:10:00,0,9349,10,0.00,0,0,0,0,8934,9820,272,9320,10,10,0,10,0.00,0.00,0.00,0.00
2014-07-30 11:20:00,0,9828,10,0.00,0,0,0,0,9124,10483,442,9688,10,10,0,10,0.00,0.00,0.00,0.00
2014-07-30 11:30:00,0,9563,10,0.00,0,0,0,0,8798,10614,538,9596,10,10,0,10,0.00,0.00,0.00,0.00
2014-07-30 11:40:00,0,9540,10,0.00,0,0,0,0,9007,10031,299,9616,10,10,0,10,0.00,0.00,0.00,0.00
2014-07-30 11:50:00,0,9344,10,0.00,0,0,0,0,8888,9775,321,9202,10,10,0,10,0.00,0.00,0.00,0.00
2014-07-30 12:00:00,0,9610,10,0.00,0,0,0,0,9054,10326,426,9604,10,10,0,10,0.00,0.00,0.00,0.00
2014-07-30 12:10:00,0,9586,10,0.00,0,0,0,0,8813,10094,349,9494,10,10,0,10,0.00,0.00,0.00,0.00
2014-07-30 12:20:00,0,9609,10,0.00,0,0,0,0,9341,10151,267,9494,10,10,0,10,0.00,0.00,0.00,0.00
2014-07-30 12:30:00,0,9629,10,0.00,0,0,0,0,9186,10172,277,9598,10,10,0,10,0.00,0.00,0.00,0.00
2014-07-30 12:40:00,0,9686,10,0.00,0,0,0,0,9259,10572,428,9634,10,10,0,10,0.00,0.00,0.00,0.00
2014-07-30 12:50:00,0,9990,10,0.00,0,0,0,0,9660,10384,249,10021,10,10,0,10,0.00,0.00,0.00,0.00
2014-07-30 13:00:00,0,10149,10,0.00,0,0,0,0,9852,10473,171,10140,10,10,0,10,0.00,0.00,0.00,0.00
2014-07-30 13:10:00,0,10174,10,0.00,0,0,0,0,9684,10642,275,10190,10,10,0,10,0.00,0.00,0.00,0.00
2014-07-30 13:20:00,0,10252,10,0.00,0,0,0,0,9288,10735,384,10324,10,10,0,10,0.00,0.00,0.00,0.00
2014-07-30 13:30:00,0,10107,10,0.00,0,0,0,0,9707,10685,331,10046,10,10,0,10,0.00,0.00,0.00,0.00
2014-07-30 13:40:00,0,9741,10,0.00,0,0,0,0,9129,10409,391,9826,10,10,0,10,0.00,0.00,0.00,0.00
2014-07-30 13:50:00,0,9672,10,0.00,0,0,0,0,9447,10010,159,9658,10,10,0,10,0.00,0.00,0.00,0.00
2014-07-30 14:00:00,0,10380,10,0.00,0,0,0,0,9562,11687,649,10112,10,10,0,10,0.00,0.00,0.00,0.00
2014-07-30 14:10:00,0,10648,10,0.00,0,0,0,0,9683,11563,557,10696,10,10,0,10,0.00,0.00,0.00,0.00
2014-07-30 14:20:00,0,10324,10,0.00,0,0,0,0,9386,10955,443,10361,10,10,0,10,0.00,0.00,0.00,0.00
2014-07-30 14:30:00,0,9560,10,0.00,0,0,0,0,9198,10144,296,9476,10,10,0,10,0.00,0.00,0.00,0.00
2014-07-30 14:40:00,0,9737,10,0.00,0,0,0,0,9433,10259,208,9712,10,10,0,10,0.00,0.00,0.00,0.00
2014-07-30 14:50:00,0,9598,10,0.00,0,0,0,0,9294,10033,251,9573,10,10,0,10,0.00,0.00,0.00,0.00
2014-07-30 15:00:00,0,9473,10,0.00,0,0,0,0,9312,9689,105,9466,10,10,0,10,0.00,0.00,0.00,0.00
2014-07-30 15:10:00,0,9636,10,0.00,0,0,0,0,9272,10015,214,9670,10,10,0,10,0.00,0.00,0.00,0.00
2014-07-30 15:20:00,0,9462,10,0.00,0,0,0,0,9046,9736,208,9471,10,10,0,10,0.00,0.00,0.00,0.00
2014-07-30 15:30:00,0,9528,10,0.00,0,0,0,0,9239,9821,165,9539,10,10,0,10,0.00,0.00,0.00,0.00
2014-07-30 15:40:00,0,9423,10,0.00,0,0,0,0,9140,9816,205,9379,10,10,0,10,0.00,0.00,0.00,0.00
2014-07-30 15:50:00,0,9454,10,0.00,0,0,0,0,9137,9815,228,9368,10,10,0,10,0.00,0.00,0.00,0.00
2014-07-30 16:00:00,0,9626,10,0.00,0,0,0,0,9423,9809,116,9612,10,10,0,10,0.00,0.00,0.00,0.00
2014-07-30 16:10:00,0,9522,10,0.00,0,0,0,0,9268,9783,150,9518,10,10,0,10,0.00,0.00,0.00,0.00
2014-07-30 16:20:00,0,9578,10,0.00,0,0,0,0,9253,9945,189,9617,10,10,0,10,0.00,0.00,0.00,0.00
2014-07-30 16:30:00,0,9456,10,0.00,0,0,0,0,9286,9717,117,9468,10,10,0,10,0.00,0.00,0.00,0.00
2014-07-30 16:40:00,0,9480,10,0.00,0,0,0,0,9170,9770,171,9491,10,10,0,10,0.00,0.00,0.00,0.00
2014-07-30 16:50:00,0,9330,10,0.00,0,0,0,0,9121,9654,168,9302,10,10,0,10,0.00,0.00,0.00,0.00
2014-07-30 17:00:00,0,9033,10,0.00,0,0,0,0,8629,9247,169,9085,10,10,0,10,0.00,0.00,0.00,0.00
2014-07-30 17:10:00,0,8796,10,0.00,0,0,0,0,8547,9064,139,8784,10,10,0,10,0.00,0.00,0.00,0.00
2014-07-30 17:20:00,0,8913,10,0.00,0,0,0,0,8496,9211,230,8964,10,10,0,10,0.00,0.00,0.00,0.00
2014-07-30 17:30:00,0,8646,10,0.00,0,0,0,0,8201,8973,222,8636,10,10,0,10,0.00,0.00,0.00,0.00
2014-07-30 17:40:00,0,7881,10,0.00,0,0,0,0,7441,8294,255,7858,10,10,0,10,0.00,0.00,0.00,0.00
2014-07-30 17:50:00,0,7453,10,0.00,0,0,0,0,7176,7803,167,7442,10,10,0,10,0.00,0.00,0.00,0.00
2014-07-30 18:00:00,0,7020,10,0.00,0,0,0,0,6757,7325,177,6993,10,10,0,10,0.00,0.00,0.00,0.00
2014-07-30 18:10:00,0,6654,10,0.00,0,0,0,0,6291,6949,173,6621,10,10,0,10,0.00,0.00,0.00,0.00
2014-07-30 18:20:00,0,6520,10,0.00,0,0,0,0,6134,6681,161,6578,10,10,0,10,0.00,0.00,0.00,0.00
2014-07-30 18:30:00,0,5957,10,0.00,0,0,0,0,5741,6174,173,5948,10,10,0,10,0.00,0.00,0.00,0.00
2014-07-30 18:40:00,0,5710,10,0.00,0,0,0,0,5446,5936,128,5725,10,10,0,10,0.00,0.00,0.00,0.00
2014-07-30 18:50:00,0,5621,10,0.00,0,0,0,0,5511,5697,59,5632,10,10,0,10,0.00,0.00,0.00,0.00
2014-07-30 19:00:00,0,5441,10,0.00,0,0,0,0,5319,5652,103,5426,10,10,0,10,0.00,0.00,0.00,0.00
2014-07-30 19:10:00,0,5519,10,0.00,0,0,0,0,5402,5629,74,5538,10,10,0,10,0.00,0.00,0.00,0.00
2014-07-30 19:20:00,0,5457,10,0.00,0,0,0,0,5219,5609,120,5470,10,10,0,10,0.00,0.00,0.00,0.00
2014-07-30 19:30:00,0,5379,10,0.00,0,0,0,0,5219,5550,114,5372,10,10,0,10,0.00,0.00,0.00,0.00
2014-07-30 19:40:00,0,5143,10,0.00,0,0,0,0,4954,5278,102,5158,10,10,0,10,0.00,0.00,0.00,0.00
2014-07-30 19:50:00,0,4828,10,0.00,0,0,0,0,4637,4991,111,4800,10,10,0,10,0.00,0.00,0.00,0.00
2014-07-30 20:00:00,0,4701,6,0.00,0,0,0,0,4618,4862,80,4674,4,10,3,4,0.00,0.00,0.00,0.00
2014-07-30 20:10:00,0,4577,8,0.00,0,0,0,0,4343,4860,140,4594,4,10,3,10,0.00,0.00,0.00,0.00
2014-07-30 20:20:00,0,4389,10,0.00,0,0,0,0,4295,4459,48,4388,10,10,0,10,0.00,0.00,0.00,0.00
2014-07-30 20:30:00,0,4415,10,0.00,0,0,0,0,4333,4591,71,4384,10,10,0,10,0.00,0.00,0.00,0.00
2014-07-30 20:40:00,0,4307,10,0.00,0,0,0,0,4122,4474,87,4292,10,10,0,10,0.00,0.00,0.00,0.00
2014-07-30 20:50:00,0,3978,10,0.00,0,0,0,0,3875,4172,79,3958,10,10,0,10,0.00,0.00,0.00,0.00
2014-07-30 21:00:00,0,4011,10,0.00,0,0,0,0,3924,4136,64,4000,10,10,0,10,0.00,0.00,0.00,0.00
2014-07-30 21:10:00,0,3855,10,0.00,0,0,0,0,3718,3956,71,3874,10,10,0,10,0.00,0.00,0.00,0.00
2014-07-30 21:20:00,0,3792,10,0.00,0,0,0,0,3723,3874,43,3786,10,10,0,10,0.00,0.00,0.00,0.00
2014-07-30 21:30:00,0,3749,10,0.00,0,0,0,0,3674,3837,50,3753,10,10,0,10,0.00,0.00,0.00,0.00
2014-07-30 21:40:00,0,3770,10,0.00,0,0,0,0,3692,3856,46,3766,10,10,0,10,0.00,0.00,0.00,0.00
2014-07-30 21:50:00,0,3685,10,0.00,0,0,0,0,3628,3799,51,3680,10,10,0,10,0.00,0.00,0.00,0.00
2014-07-30 22:00:00,0,3677,10,0.00,0,0,0,0,3613,3746,52,3646,10,10,0,10,0.00,0.00,0.00,0.00
2014-07-30 22:10:00,0,3778,10,0.00,0,0,0,0,3691,3846,41,3784,10,10,0,10,0.00,0.00,0.00,0.00
2014-07-30 22:20:00,0,3816,10,0.00,0,0,0,0,3681,3961,95,3798,10,10,0,10,0.00,0.00,0.00,0.00
2014-07-30 22:30:00,0,3898,10,0.00,0,0,0,0,3810,3984,66,3916,10,10,0,10,0.00,0.00,0.00,0.00
2014-07-30 22:40:00,0,3921,10,0.00,0,0,0,0,3800,3989,50,3926,10,10,0,10,0.00,0.00,0.00,0.00
2014-07-30 22:50:00,0,3996,10,0.00,0,0,0,0,3876,4088,56,3996,10,10,0,10,0.00,0.00,0.00,0.00
2014-07-30 23:00:00,0,4109,10,0.00,0,0,0,0,3918,4253,99,4106,10,10,0,10,0.00,0.00,0.00,0.00
2014-07-30 23:10:00,0,4171,10,0.00,0,0,0,0,4075,4304,61,4176,10,10,0,10,0.00,0.00,0.00,0.00
2014-07-30 23:20:00,0,4232,10,0.00,0,0,0,0,4104,4388,74,4228,10,10,0,10,0.00,0.00,0.00,0.00
2014-07-30 23:30:00,0,4332,10,0.00,0,0,0,0,4172,4456,89,4335,10,10,0,10,0.00,0.00,0.00,0.00
2014-07-30 23:40:00,0,4498,10,0.00,0,0,0,0,4207,4767,193,4494,10,10,0,10,0.00,0.00,0.00,0.00
2014-07-30 23:50:00,0,4667,10,0.00,0,0,0,0,4149,4958,230,4691,10,10,0,10,0.00,0.00,0.00,0.00
